When you browse on this site, cookies collect data to enhance your experience and personalize the content and advertising you see.
Visit our Privacy Policy to learn more. By continuing to use the site, you agree to this use of cookies and data.
  • In Romania
  • List of Countries
  • For 7 days
  • Water Temperature
  • Satellite Maps
  • Weather Map
  • Weather Widgets
  • user-avatar
    Login

    Hourly Weather Reno

    Today, 23 February, Saturday

    Time Temperature Precipitation Wind Pressure Humidity
    00:00 -7°C° 0 mm 2 mps 644 mmHg 79%
    01:00 -7°C° 0 mm 2 mps 644 mmHg 80%
    02:00 -7°C° 0 mm 2 mps 644 mmHg 76%
    03:00 -7°C° 0 mm 2 mps 644 mmHg 72%
    04:00 -7°C° 0 mm 2 mps 644 mmHg 69%
    05:00 -7°C° 0 mm 2 mps 645 mmHg 66%
    06:00 -7°C° 0 mm 2 mps 645 mmHg 63%
    07:00 -7°C° 0 mm 2 mps 645 mmHg 60%
    08:00 -5°C° 0 mm 2 mps 646 mmHg 61%
    09:00 -2°C° 0 mm 2 mps 646 mmHg 61%
    10:00 +2°C° 0 mm 1 mps 647 mmHg 61%
    11:00 +3°C° 0 mm 1 mps 647 mmHg 66%
    12:00 +4°C° 0 mm 1 mps 647 mmHg 71%
    13:00 +5°C° 0 mm 1 mps 647 mmHg 76%
    14:00 +4°C° 0.1 mm 1 mps 646 mmHg 77%
    15:00 +4°C° 0.1 mm 1 mps 646 mmHg 77%
    16:00 +4°C° 0.1 mm 1 mps 646 mmHg 77%
    17:00 +3°C° 0 mm 1 mps 646 mmHg 79%
    18:00 +1°C° 0 mm 2 mps 646 mmHg 82%
    19:00 -1°C° 0 mm 2 mps 646 mmHg 84%
    20:00 -2°C° 0 mm 2 mps 646 mmHg 84%
    21:00 -2°C° 0 mm 2 mps 646 mmHg 84%
    22:00 -3°C° 0 mm 2 mps 646 mmHg 84%
    23:00 -2°C° 0 mm 2 mps 646 mmHg 84%

    Tomorrow, 24 February, Sunday

    Time Temperature Precipitation Wind Pressure Humidity
    00:00 -2°C° 0 mm 2 mps 646 mmHg 83%
    01:00 -2°C° 0 mm 2 mps 646 mmHg 83%
    02:00 -2°C° 0 mm 2 mps 646 mmHg 83%
    03:00 -3°C° 0 mm 2 mps 645 mmHg 82%
    04:00 -3°C° 0 mm 2 mps 645 mmHg 82%
    05:00 -3°C° 0 mm 2 mps 645 mmHg 80%
    06:00 -3°C° 0 mm 2 mps 645 mmHg 79%
    07:00 -4°C° 0 mm 3 mps 644 mmHg 78%
    08:00 -1°C° 0 mm 3 mps 645 mmHg 76%
    09:00 +1°C° 0 mm 3 mps 645 mmHg 75%
    10:00 +3°C° 0 mm 3 mps 645 mmHg 74%
    11:00 +3°C° 0 mm 4 mps 645 mmHg 73%
    12:00 +4°C° 0 mm 4 mps 644 mmHg 73%
    13:00 +5°C° 0 mm 5 mps 644 mmHg 73%
    14:00 +3°C° 0 mm 5 mps 644 mmHg 72%
    15:00 +4°C° 0 mm 4 mps 643 mmHg 71%
    16:00 +4°C° 0 mm 4 mps 642 mmHg 71%
    17:00 +1°C° 0 mm 4 mps 642 mmHg 73%
    18:00 +1°C° 0 mm 3 mps 642 mmHg 75%
    19:00 0°C° 0 mm 3 mps 642 mmHg 78%
    20:00 0°C° 0 mm 3 mps 642 mmHg 77%
    21:00 -1°C° 0 mm 3 mps 642 mmHg 76%
    22:00 -1°C° 0 mm 3 mps 642 mmHg 76%
    23:00 0°C° 0 mm 3 mps 642 mmHg 76%

    Day after tomorrow, 25 February, Monday

    Time Temperature Precipitation Wind Pressure Humidity
    00:00 0°C° 0 mm 3 mps 642 mmHg 76%
    01:00 0°C° 0 mm 3 mps 642 mmHg 76%
    02:00 0°C° 0 mm 3 mps 642 mmHg 76%
    03:00 0°C° 0 mm 3 mps 641 mmHg 76%
    04:00 -1°C° 0 mm 3 mps 641 mmHg 77%
    05:00 -1°C° 0 mm 4 mps 641 mmHg 76%
    06:00 -1°C° 0 mm 4 mps 641 mmHg 75%
    07:00 -1°C° 0 mm 4 mps 641 mmHg 74%
    08:00 0°C° 0 mm 5 mps 641 mmHg 73%
    09:00 +2°C° 0 mm 6 mps 641 mmHg 71%
    10:00 +3°C° 0 mm 7 mps 641 mmHg 70%
    11:00 +2°C° 0 mm 8 mps 641 mmHg 68%
    12:00 +3°C° 0 mm 9 mps 641 mmHg 67%
    13:00 +3°C° 0 mm 10 mps 640 mmHg 65%
    14:00 +3°C° 0 mm 10 mps 640 mmHg 65%
    15:00 +3°C° 0 mm 10 mps 639 mmHg 65%
    16:00 +2°C° 0 mm 10 mps 639 mmHg 65%
    17:00 +2°C° 0 mm 10 mps 639 mmHg 67%
    18:00 +1°C° 0 mm 9 mps 639 mmHg 69%
    19:00 +1°C° 0 mm 9 mps 638 mmHg 71%
    20:00 +1°C° 0 mm 9 mps 639 mmHg 71%
    21:00 +1°C° 0 mm 9 mps 639 mmHg 71%
    22:00 +1°C° 0 mm 9 mps 639 mmHg 71%
    23:00 +1°C° 0.1 mm 8 mps 639 mmHg 73%

    26 February, Tuesday

    Time Temperature Precipitation Wind Pressure Humidity
    00:00 +1°C° 0.1 mm 8 mps 639 mmHg 74%
    01:00 +2°C° 0.1 mm 7 mps 639 mmHg 76%
    02:00 +2°C° 0.2 mm 7 mps 639 mmHg 77%
    03:00 +2°C° 0.2 mm 6 mps 638 mmHg 78%
    04:00 +1°C° 0.2 mm 6 mps 638 mmHg 79%
    05:00 +1°C° 0.2 mm 6 mps 639 mmHg 79%
    06:00 +1°C° 0.2 mm 5 mps 639 mmHg 79%
    07:00 +1°C° 0.2 mm 5 mps 639 mmHg 79%
    08:00 +2°C° 0.1 mm 6 mps 639 mmHg 76%
    09:00 +3°C° 0.1 mm 7 mps 640 mmHg 74%
    10:00 +2°C° 0.1 mm 8 mps 640 mmHg 71%
    11:00 +4°C° 0 mm 8 mps 640 mmHg 69%
    12:00 +3°C° 0 mm 9 mps 640 mmHg 67%
    13:00 +5°C° 0 mm 9 mps 640 mmHg 64%
    14:00 +5°C° 0 mm 9 mps 640 mmHg 65%
    15:00 +5°C° 0 mm 8 mps 640 mmHg 65%
    16:00 +5°C° 0 mm 8 mps 640 mmHg 65%
    17:00 +4°C° 0.1 mm 6 mps 640 mmHg 69%
    18:00 +4°C° 0.1 mm 4 mps 639 mmHg 73%
    19:00 +3°C° 0.1 mm 3 mps 639 mmHg 77%
    20:00 +3°C° 0.2 mm 3 mps 639 mmHg 78%
    21:00 +3°C° 0.2 mm 3 mps 639 mmHg 79%
    22:00 +3°C° 0.2 mm 3 mps 639 mmHg 80%
    23:00 +3°C° 0.2 mm 3 mps 639 mmHg 81%

    27 February, Wednesday

    Time Temperature Precipitation Wind Pressure Humidity
    00:00 +3°C° 0.2 mm 4 mps 639 mmHg 81%
    01:00 +3°C° 0.2 mm 4 mps 639 mmHg 82%
    02:00 +3°C° 0.5 mm 4 mps 639 mmHg 82%
    03:00 +3°C° 0.5 mm 4 mps 639 mmHg 83%
    04:00 +3°C° 0.5 mm 4 mps 639 mmHg 83%
    05:00 +4°C° 0.7 mm 4 mps 640 mmHg 84%
    06:00 +4°C° 0.7 mm 4 mps 640 mmHg 84%
    07:00 +4°C° 0.7 mm 4 mps 640 mmHg 84%
    08:00 +4°C° 0.2 mm 6 mps 641 mmHg 80%
    09:00 +5°C° 0.2 mm 8 mps 642 mmHg 76%
    10:00 +6°C° 0.2 mm 10 mps 642 mmHg 71%
    11:00 +6°C° 0 mm 11 mps 642 mmHg 69%
    12:00 +6°C° 0 mm 11 mps 642 mmHg 67%
    13:00 +7°C° 0 mm 12 mps 642 mmHg 65%
    14:00 +7°C° 0 mm 12 mps 642 mmHg 65%
    15:00 +5°C° 0 mm 12 mps 642 mmHg 66%
    16:00 +5°C° 0 mm 12 mps 642 mmHg 66%
    17:00 +5°C° 0 mm 9 mps 641 mmHg 70%
    18:00 +4°C° 0 mm 7 mps 641 mmHg 74%
    19:00 +3°C° 0 mm 5 mps 641 mmHg 78%
    20:00 +3°C° 0 mm 5 mps 641 mmHg 78%
    21:00 +3°C° 0 mm 5 mps 641 mmHg 79%
    22:00 +3°C° 0 mm 5 mps 641 mmHg 79%
    23:00 +3°C° 0 mm 6 mps 641 mmHg 79%

    28 February, Thursday

    Time Temperature Precipitation Wind Pressure Humidity
    00:00 +3°C° 0 mm 7 mps 641 mmHg 79%
    01:00 +3°C° 0 mm 7 mps 641 mmHg 79%
    02:00 +2°C° 0.1 mm 8 mps 641 mmHg 78%
    03:00 +2°C° 0.1 mm 9 mps 640 mmHg 78%
    04:00 +2°C° 0.1 mm 9 mps 640 mmHg 77%
    05:00 +1°C° 0 mm 9 mps 641 mmHg 76%
    06:00 +1°C° 0 mm 9 mps 641 mmHg 75%
    07:00 +1°C° 0 mm 10 mps 641 mmHg 74%
    08:00 +1°C° 0 mm 11 mps 642 mmHg 70%
    09:00 +2°C° 0 mm 12 mps 642 mmHg 65%
    10:00 +3°C° 0 mm 13 mps 643 mmHg 60%
    11:00 +2°C° 0 mm 12 mps 643 mmHg 58%
    12:00 +2°C° 0 mm 12 mps 643 mmHg 56%
    13:00 +2°C° 0 mm 11 mps 643 mmHg 54%
    14:00 +2°C° 0 mm 10 mps 643 mmHg 53%
    15:00 +1°C° 0 mm 9 mps 643 mmHg 52%
    16:00 +2°C° 0 mm 7 mps 643 mmHg 51%
    17:00 -1°C° 0 mm 6 mps 643 mmHg 57%
    18:00 -1°C° 0 mm 4 mps 643 mmHg 63%
    19:00 -1°C° 0 mm 3 mps 643 mmHg 69%
    20:00 -1°C° 0 mm 3 mps 643 mmHg 69%
    21:00 -2°C° 0 mm 2 mps 644 mmHg 69%
    22:00 -2°C° 0 mm 2 mps 644 mmHg 69%
    23:00 -2°C° 0 mm 2 mps 645 mmHg 69%
    Show more